QPF
0.03 0.04 0.06 0.05 0.05 0.05 0.04 0.05 0.04 0.03 0.03 0.04 0.02 0.01 0.02 0.04 0.08 0.16 0.19 0.12 0.08 0.08 0.09 0.07 0.08 0.07 0.06 0.04 0.03 0.03 0.03 0.03 0.04 0.05 0.06 0.04 0.04 0.05 0.05 0.06 0.09 0.10 0.09 0.08 0.08 0.11 0.11 0.13 0.11
0.04 0.04 0.05 0.05 0.04 0.01 0.03 0.04 0.03 0.02 0.02 0.02 0.01 0.02 0.05 0.07 0.10 0.15 0.17 0.12 0.06 0.05 0.05 0.05 0.06 0.05 0.04 0.02 0.02 0.02 0.02 0.03 0.04 0.06 0.06 0.05 0.06 0.07 0.07 0.07 0.07 0.07 0.07 0.07 0.06 0.08 0.09 0.12 0.12
0.05 0.03 0.03 0.03 0.01 0.01 0.02 0.02 0.01 0.01 0.00 0.00 0.01 0.01 0.03 0.05 0.07 0.10 0.11 0.09 0.06 0.04 0.03 0.04 0.03 0.03 0.02 0.01 0.01 0.02 0.02 0.02 0.02 0.03 0.05 0.07 0.08 0.06 0.07 0.08 0.07 0.07 0.06 0.07 0.06 0.07 0.07 0.10 0.11
0.02 0.02 0.02 0.01 0.01 0.01 0.01 0.01 0.01 0.00 0.00 0.00 0.00 0.01 0.04 0.05 0.06 0.07 0.07 0.05 0.03 0.03 0.03 0.03 0.03 0.02 0.01 0.01 0.01 0.02 0.02 0.01 0.02 0.03 0.03 0.06 0.07 0.07 0.08 0.09 0.09 0.07 0.05 0.06 0.07 0.08 0.08 0.08 0.08
0.01 0.01 0.01 0.01 0.00 0.01 0.01 0.00 0.00 0.00 0.01 0.00 0.00 0.01 0.04 0.05 0.03 0.04 0.05 0.03 0.01 0.02 0.03 0.03 0.04 0.02 0.01 0.01 0.01 0.01 0.01 0.01 0.02 0.03 0.04 0.07 0.07 0.07 0.07 0.07 0.06 0.06 0.05 0.06 0.08 0.08 0.06 0.06 0.07
0.01 0.01 0.00 0.00 0.01 0.00 0.00 0.00 0.00 0.00 0.00 0.00 0.00 0.01 0.04 0.04 0.03 0.04 0.04 0.03 0.02 0.01 0.02 0.02 0.02 0.02 0.01 0.01 0.01 0.01 0.01 0.01 0.02 0.03 0.05 0.06 0.06 0.06 0.05 0.04 0.04 0.03 0.04 0.07 0.08 0.07 0.07 0.08 0.14
0.01 0.01 0.00 0.00 0.00 0.01 0.00 0.00 0.00 0.00 0.00 0.00 0.00 0.00 0.03 0.05 0.04 0.03 0.03 0.03 0.02 0.02 0.03 0.02 0.01 0.02 0.02 0.01 0.01 0.01 0.01 0.01 0.02 0.03 0.05 0.06 0.06 0.06 0.04 0.03 0.03 0.04 0.04 0.05 0.06 0.05 0.05 0.07 0.15
0.00 0.00 0.00 0.00 0.00 0.00 0.00 0.00 0.00 0.00 0.00 0.00 0.00 0.00 0.02 0.03 0.03 0.03 0.02 0.02 0.03 0.03 0.04 0.03 0.02 0.02 0.02 0.02 0.02 0.02 0.01 0.02 0.02 0.03 0.05 0.06 0.07 0.06 0.05 0.04 0.04 0.04 0.04 0.04 0.05 0.04 0.04 0.05 0.10
0.01 0.00 0.00 0.00 0.00 0.00 0.00 0.00 0.00 0.00 0.00 0.00 0.00 0.00 0.01 0.02 0.02 0.03 0.03 0.02 0.03 0.03 0.04 0.05 0.04 0.04 0.03 0.03 0.04 0.04 0.03 0.04 0.04 0.05 0.06 0.06 0.04 0.03 0.03 0.03 0.04 0.03 0.02 0.03 0.04 0.04 0.04 0.03 0.06
0.00 0.00 0.00 0.00 0.00 0.00 0.00 0.00 0.00 0.00 0.00 0.01 0.01 0.01 0.01 0.01 0.02 0.02 0.02 0.02 0.03 0.05 0.05 0.05 0.07 0.06 0.04 0.03 0.03 0.04 0.04 0.05 0.06 0.06 0.07 0.07 0.05 0.03 0.04 0.05 0.05 0.04 0.04 0.04 0.04 0.06 0.05 0.03 0.04
0.00 0.00 0.00 0.00 0.00 0.00 0.00 0.00 0.00 0.00 0.00 0.00 0.01 0.01 0.01 0.01 0.01 0.02 0.02 0.01 0.02 0.03 0.05 0.05 0.07 0.06 0.05 0.05 0.07 0.08 0.08 0.08 0.08 0.08 0.09 0.09 0.08 0.09 0.10 0.08 0.07 0.08 0.08 0.05 0.04 0.05 0.05 0.05 0.04
0.00 0.00 0.00 0.00 0.00 0.00 0.01 0.01 0.00 0.00 0.00 0.00 0.00 0.00 0.01 0.00 0.00 0.01 0.02 0.02 0.02 0.02 0.04 0.06 0.05 0.04 0.05 0.05 0.07 0.12 0.08 0.10 0.11 0.07 0.08 0.06 0.06 0.13 0.14 0.15 0.09 0.11 0.11 0.10 0.07 0.05 0.04 0.04 0.07
0.00 0.00 0.00 0.00 0.01 0.01 0.01 0.01 0.00 0.01 0.01 0.00 0.00 0.00 0.00 0.00 0.00 0.01 0.01 0.01 0.01 0.02 0.03 0.04 0.03 0.03 0.04 0.04 0.04 0.06 0.06 0.09 0.06 0.06 0.05 0.04 0.04 0.07 0.08 0.08 0.08 0.09 0.09 0.11 0.11 0.08 0.07 0.05 0.06
0.00 0.00 0.00 0.00 0.00 0.01 0.00 0.00 0.00 0.01 0.01 0.01 0.00 0.00 0.00 0.00 0.00 0.00 0.01 0.01 0.01 0.02 0.02 0.03 0.03 0.03 0.03 0.04 0.04 0.04 0.04 0.05 0.04 0.04 0.03 0.03 0.03 0.04 0.05 0.05 0.06 0.07 0.06 0.07 0.10 0.09 0.12 0.06 0.06
0.00 0.01 0.01 0.01 0.01 0.01 0.00 0.01 0.00 0.00 0.00 0.01 0.01 0.01 0.02 0.01 0.00 0.00 0.00 0.00 0.01 0.01 0.02 0.03 0.03 0.02 0.02 0.03 0.04 0.03 0.03 0.04 0.04 0.02 0.02 0.03 0.02 0.03 0.04 0.05 0.06 0.06 0.07 0.07 0.06 0.05 0.07 0.08 0.07
0.00 0.01 0.01 0.01 0.02 0.01 0.00 0.01 0.01 0.01 0.00 0.00 0.00 0.01 0.04 0.02 0.01 0.00 0.00 0.01 0.01 0.01 0.02 0.04 0.04 0.02 0.03 0.03 0.03 0.02 0.04 0.05 0.04 0.02 0.02 0.02 0.02 0.03 0.03 0.04 0.05 0.05 0.05 0.06 0.07 0.06 0.06 0.07 0.06
0.02 0.01 0.01 0.00 0.04 0.03 0.01 0.01 0.00 0.00 0.00 0.00 0.01 0.01 0.01 0.01 0.01 0.00 0.01 0.01 0.01 0.02 0.03 0.04 0.06 0.04 0.03 0.03 0.03 0.03 0.05 0.06 0.05 0.02 0.01 0.02 0.03 0.04 0.04 0.03 0.04 0.04 0.04 0.05 0.06 0.06 0.06 0.07 0.07
0.02 0.02 0.01 0.01 0.01 0.03 0.01 0.01 0.00 0.00 0.00 0.00 0.01 0.01 0.01 0.01 0.01 0.01 0.01 0.01 0.00 0.01 0.03 0.05 0.07 0.05 0.04 0.03 0.03 0.03 0.04 0.08 0.08 0.03 0.02 0.03 0.04 0.05 0.05 0.04 0.04 0.04 0.03 0.03 0.03 0.04 0.04 0.05 0.05
0.01 0.01 0.00 0.00 0.00 0.02 0.02 0.01 0.01 0.01 0.00 0.00 0.01 0.01 0.01 0.01 0.01 0.01 0.01 0.00 0.00 0.01 0.03 0.04 0.04 0.04 0.04 0.03 0.03 0.04 0.04 0.07 0.09 0.07 0.04 0.05 0.04 0.05 0.06 0.05 0.05 0.05 0.04 0.02 0.02 0.03 0.04 0.04 0.05
0.00 0.00 0.00 0.01 0.01 0.02 0.05 0.03 0.02 0.01 0.00 0.00 0.01 0.00 0.00 0.01 0.01 0.01 0.01 0.00 0.00 0.01 0.02 0.03 0.02 0.03 0.03 0.03 0.03 0.03 0.04 0.06 0.09 0.09 0.08 0.08 0.06 0.06 0.06 0.06 0.07 0.07 0.05 0.03 0.03 0.03 0.04 0.04 0.05
0.00 0.00 0.00 0.01 0.01 0.01 0.04 0.05 0.04 0.02 0.01 0.01 0.00 0.00 0.00 0.00 0.01 0.00 0.00 0.00 0.00 0.00 0.01 0.02 0.01 0.03 0.03 0.03 0.03 0.02 0.03 0.06 0.08 0.12 0.12 0.10 0.09 0.06 0.06 0.06 0.06 0.05 0.04 0.04 0.04 0.04 0.05 0.05 0.05
0.00 0.00 0.00 0.00 0.00 0.01 0.01 0.01 0.03 0.02 0.01 0.01 0.00 0.00 0.00 0.00 0.00 0.00 0.00 0.00 0.00 0.00 0.00 0.00 0.01 0.02 0.02 0.03 0.03 0.03 0.04 0.05 0.06 0.10 0.11 0.10 0.08 0.06 0.05 0.06 0.06 0.05 0.04 0.04 0.04 0.05 0.05 0.05 0.06
0.00 0.00 0.00 0.01 0.00 0.00 0.00 0.01 0.02 0.02 0.01 0.01 0.01 0.00 0.00 0.00 0.00 0.00 0.00 0.00 0.00 0.00 0.00 0.00 0.00 0.01 0.01 0.02 0.03 0.04 0.05 0.05 0.07 0.12 0.09 0.08 0.07 0.05 0.04 0.05 0.06 0.07 0.05 0.04 0.04 0.05 0.05 0.05 0.07
0.00 0.00 0.01 0.01 0.00 0.00 0.00 0.00 0.01 0.00 0.01 0.02 0.01 0.01 0.00 0.00 0.00 0.00 0.00 0.00 0.00 0.00 0.00 0.00 0.00 0.01 0.01 0.01 0.03 0.03 0.04 0.04 0.05 0.09 0.08 0.07 0.06 0.05 0.04 0.05 0.06 0.06 0.04 0.03 0.04 0.05 0.05 0.05 0.06
0.00 0.00 0.01 0.01 0.01 0.00 0.00 0.01 0.00 0.00 0.01 0.01 0.01 0.01 0.01 0.01 0.01 0.01 0.00 0.00 0.01 0.01 0.00 0.00 0.00 0.00 0.00 0.00 0.01 0.01 0.02 0.02 0.03 0.06 0.04 0.04 0.04 0.04 0.03 0.03 0.03 0.03 0.02 0.02 0.04 0.04 0.04 0.04 0.05
0.00 0.00 0.00 0.00 0.01 0.00 0.00 0.01 0.01 0.01 0.01 0.01 0.01 0.02 0.02 0.03 0.04 0.04 0.02 0.01 0.01 0.01 0.00 0.00 0.00 0.00 0.00 0.00 0.00 0.01 0.01 0.01 0.02 0.03 0.04 0.02 0.02 0.02 0.01 0.01 0.01 0.01 0.02 0.02 0.02 0.03 0.04 0.04 0.04
0.00 0.00 0.00 0.00 0.01 0.01 0.01 0.01 0.01 0.01 0.01 0.01 0.01 0.03 0.05 0.02 0.04 0.05 0.03 0.02 0.01 0.01 0.01 0.00 0.00 0.00 0.00 0.00 0.00 0.01 0.01 0.01 0.01 0.02 0.02 0.01 0.01 0.01 0.01 0.01 0.02 0.02 0.02 0.03 0.03 0.03 0.03 0.04 0.05
0.00 0.00 0.00 0.00 0.01 0.02 0.02 0.01 0.01 0.02 0.01 0.01 0.01 0.03 0.04 0.02 0.03 0.03 0.02 0.01 0.01 0.01 0.01 0.00 0.00 0.00 0.00 0.00 0.00 0.00 0.00 0.01 0.01 0.01 0.01 0.00 0.01 0.00 0.01 0.01 0.01 0.01 0.02 0.02 0.04 0.03 0.05 0.06 0.06
0.00 0.00 0.00 0.00 0.00 0.01 0.01 0.01 0.01 0.01 0.01 0.01 0.02 0.02 0.03 0.02 0.02 0.03 0.02 0.01 0.02 0.02 0.02 0.01 0.01 0.00 0.00 0.00 0.00 0.00 0.00 0.00 0.01 0.00 0.00 0.00 0.00 0.01 0.01 0.01 0.01 0.01 0.01 0.02 0.03 0.03 0.05 0.06 0.07
0.00 0.00 0.00 0.00 0.00 0.00 0.00 0.01 0.01 0.00 0.00 0.01 0.03 0.03 0.05 0.05 0.03 0.03 0.04 0.04 0.04 0.03 0.03 0.02 0.02 0.01 0.00 0.00 0.00 0.00 0.00 0.00 0.00 0.00 0.00 0.00 0.00 0.01 0.01 0.01 0.01 0.01 0.01 0.02 0.03 0.04 0.05 0.07 0.08
MSLP
1005.28 1006.35 1007.62 1008.96 1010.21 1011.25 1011.99 1012.43 1012.59 1012.57 1012.49 1012.45 1012.52 1012.72 1013.01 1013.31 1013.54 1013.62 1013.50 1013.18 1012.72 1012.19 1011.67 1011.23 1010.92 1010.74 1010.63 1010.56 1010.47 1010.32 1010.11 1009.86 1009.60 1009.37 1009.21 1009.12 1009.10 1009.10 1009.09 1009.04 1008.95 1008.83 1008.72 1008.64 1008.64 1008.72 1008.90 1009.14 1009.42
1005.81 1007.04 1008.39 1009.72 1010.88 1011.75 1012.29 1012.51 1012.48 1012.30 1012.11 1012.00 1012.04 1012.24 1012.54 1012.87 1013.14 1013.27 1013.22 1013.00 1012.64 1012.21 1011.78 1011.42 1011.16 1010.99 1010.88 1010.80 1010.70 1010.57 1010.40 1010.20 1010.02 1009.88 1009.78 1009.74 1009.72 1009.71 1009.67 1009.59 1009.48 1009.35 1009.25 1009.20 1009.24 1009.35 1009.54 1009.77 1010.03
1006.48 1007.84 1009.22 1010.48 1011.49 1012.16 1012.48 1012.48 1012.26 1011.94 1011.67 1011.52 1011.56 1011.77 1012.10 1012.47 1012.77 1012.94 1012.95 1012.79 1012.52 1012.18 1011.84 1011.56 1011.35 1011.21 1011.12 1011.04 1010.95 1010.83 1010.69 1010.55 1010.43 1010.35 1010.31 1010.30 1010.29 1010.26 1010.20 1010.10 1009.97 1009.84 1009.75 1009.72 1009.78 1009.91 1010.11 1010.33 1010.57
1007.21 1008.63 1010.00 1011.15 1011.99 1012.45 1012.56 1012.36 1012.00 1011.59 1011.28 1011.13 1011.19 1011.43 1011.79 1012.18 1012.50 1012.69 1012.73 1012.62 1012.40 1012.14 1011.88 1011.67 1011.53 1011.43 1011.37 1011.31 1011.23 1011.13 1011.02 1010.91 1010.83 1010.79 1010.78 1010.79 1010.79 1010.76 1010.69 1010.58 1010.46 1010.35 1010.29 1010.29 1010.37 1010.52 1010.71 1010.93 1011.14
1007.87 1009.30 1010.59 1011.62 1012.29 1012.57 1012.51 1012.19 1011.74 1011.31 1011.01 1010.90 1011.01 1011.29 1011.67 1012.07 1012.38 1012.57 1012.60 1012.51 1012.34 1012.14 1011.95 1011.82 1011.74 1011.70 1011.68 1011.64 1011.58 1011.49 1011.39 1011.29 1011.23 1011.20 1011.20 1011.22 1011.23 1011.21 1011.15 1011.07 1010.98 1010.90 1010.88 1010.92 1011.03 1011.19 1011.39 1011.59 1011.78
1008.33 1009.71 1010.90 1011.80 1012.32 1012.47 1012.31 1011.94 1011.50 1011.11 1010.88 1010.86 1011.03 1011.36 1011.76 1012.14 1012.42 1012.58 1012.60 1012.51 1012.36 1012.20 1012.08 1012.02 1012.00 1012.02 1012.04 1012.03 1011.98 1011.90 1011.79 1011.70 1011.63 1011.59 1011.60 1011.61 1011.63 1011.62 1011.59 1011.54 1011.49 1011.46 1011.49 1011.57 1011.71 1011.90 1012.10 1012.29 1012.46
1008.53 1009.80 1010.87 1011.62 1012.04 1012.12 1011.95 1011.62 1011.26 1010.99 1010.88 1010.96 1011.22 1011.59 1011.99 1012.35 1012.59 1012.70 1012.69 1012.59 1012.46 1012.34 1012.27 1012.27 1012.32 1012.39 1012.44 1012.46 1012.42 1012.33 1012.22 1012.11 1012.02 1011.98 1011.97 1011.98 1012.00 1012.01 1012.00 1011.98 1011.97 1011.99 1012.05 1012.17 1012.34 1012.54 1012.74 1012.93 1013.09
1008.45 1009.58 1010.50 1011.14 1011.48 1011.56 1011.44 1011.22 1011.01 1010.90 1010.94 1011.14 1011.48 1011.88 1012.28 1012.61 1012.81 1012.88 1012.83 1012.72 1012.60 1012.52 1012.50 1012.55 1012.65 1012.76 1012.84 1012.87 1012.84 1012.75 1012.63 1012.50 1012.41 1012.35 1012.33 1012.33 1012.36 1012.37 1012.38 1012.38 1012.38 1012.42 1012.50 1012.64 1012.81 1013.02 1013.23 1013.42 1013.59
1008.17 1009.13 1009.90 1010.44 1010.75 1010.86 1010.84 1010.78 1010.74 1010.81 1011.00 1011.32 1011.72 1012.15 1012.54 1012.82 1012.98 1013.02 1012.96 1012.85 1012.75 1012.70 1012.72 1012.81 1012.94 1013.08 1013.18 1013.22 1013.19 1013.09 1012.97 1012.84 1012.74 1012.68 1012.66 1012.67 1012.69 1012.71 1012.72 1012.72 1012.72 1012.74 1012.81 1012.93 1013.10 1013.30 1013.52 1013.72 1013.91
1007.79 1008.58 1009.22 1009.68 1009.98 1010.15 1010.25 1010.35 1010.49 1010.72 1011.04 1011.44 1011.88 1012.31 1012.67 1012.92 1013.05 1013.06 1013.00 1012.91 1012.84 1012.83 1012.89 1013.01 1013.16 1013.30 1013.41 1013.44 1013.41 1013.32 1013.20 1013.08 1012.99 1012.95 1012.94 1012.97 1013.00 1013.02 1013.03 1013.00 1012.98 1012.96 1012.99 1013.07 1013.21 1013.40 1013.62 1013.85 1014.08
1007.46 1008.09 1008.61 1009.01 1009.31 1009.56 1009.78 1010.02 1010.30 1010.64 1011.04 1011.48 1011.92 1012.32 1012.64 1012.86 1012.96 1012.98 1012.94 1012.88 1012.86 1012.88 1012.97 1013.10 1013.26 1013.40 1013.49 1013.52 1013.49 1013.40 1013.30 1013.20 1013.15 1013.13 1013.17 1013.22 1013.28 1013.31 1013.30 1013.25 1013.18 1013.12 1013.09 1013.12 1013.21 1013.38 1013.61 1013.87 1014.14
1007.30 1007.80 1008.22 1008.58 1008.91 1009.22 1009.53 1009.87 1010.23 1010.63 1011.05 1011.47 1011.86 1012.20 1012.47 1012.65 1012.75 1012.78 1012.77 1012.76 1012.78 1012.84 1012.95 1013.09 1013.24 1013.37 1013.45 1013.47 1013.43 1013.36 1013.27 1013.21 1013.20 1013.23 1013.31 1013.41 1013.50 1013.55 1013.54 1013.48 1013.38 1013.27 1013.18 1013.15 1013.21 1013.35 1013.58 1013.87 1014.19
1007.38 1007.78 1008.14 1008.48 1008.83 1009.19 1009.56 1009.95 1010.34 1010.72 1011.09 1011.43 1011.74 1012.00 1012.20 1012.35 1012.44 1012.50 1012.54 1012.58 1012.64 1012.73 1012.85 1012.99 1013.13 1013.24 1013.30 1013.31 1013.28 1013.22 1013.16 1013.14 1013.17 1013.25 1013.38 1013.52 1013.65 1013.74 1013.76 1013.70 1013.59 1013.45 1013.33 1013.26 1013.28 1013.40 1013.63 1013.95 1014.31
1007.70 1008.05 1008.38 1008.73 1009.11 1009.50 1009.90 1010.29 1010.64 1010.95 1011.22 1011.44 1011.63 1011.79 1011.93 1012.04 1012.13 1012.22 1012.30 1012.38 1012.47 1012.58 1012.71 1012.84 1012.96 1013.05 1013.11 1013.12 1013.10 1013.06 1013.03 1013.04 1013.10 1013.22 1013.38 1013.57 1013.74 1013.87 1013.93 1013.91 1013.82 1013.69 1013.56 1013.48 1013.49 1013.61 1013.83 1014.16 1014.54
1008.20 1008.53 1008.88 1009.26 1009.67 1010.09 1010.49 1010.84 1011.11 1011.31 1011.43 1011.52 1011.57 1011.63 1011.70 1011.78 1011.88 1011.99 1012.11 1012.22 1012.33 1012.45 1012.56 1012.68 1012.78 1012.87 1012.93 1012.96 1012.96 1012.95 1012.95 1012.97 1013.05 1013.17 1013.35 1013.56 1013.76 1013.93 1014.05 1014.08 1014.04 1013.96 1013.87 1013.81 1013.83 1013.95 1014.18 1014.51 1014.90
1008.78 1009.13 1009.52 1009.96 1010.42 1010.87 1011.25 1011.54 1011.71 1011.76 1011.73 1011.66 1011.59 1011.55 1011.56 1011.62 1011.73 1011.87 1012.00 1012.13 1012.24 1012.34 1012.44 1012.53 1012.63 1012.72 1012.81 1012.87 1012.92 1012.94 1012.96 1012.99 1013.05 1013.16 1013.32 1013.51 1013.72 1013.92 1014.09 1014.19 1014.23 1014.23 1014.20 1014.20 1014.25 1014.39 1014.62 1014.94 1015.32
1009.33 1009.73 1010.21 1010.73 1011.26 1011.74 1012.10 1012.31 1012.36 1012.26 1012.06 1011.84 1011.65 1011.53 1011.50 1011.55 1011.68 1011.83 1011.98 1012.11 1012.21 1012.28 1012.34 1012.42 1012.51 1012.63 1012.75 1012.88 1012.98 1013.05 1013.09 1013.12 1013.15 1013.20 1013.30 1013.44 1013.63 1013.84 1014.04 1014.21 1014.34 1014.43 1014.50 1014.57 1014.67 1014.84 1015.08 1015.38 1015.73
1009.78 1010.28 1010.87 1011.51 1012.12 1012.63 1012.96 1013.09 1013.00 1012.74 1012.38 1012.01 1011.71 1011.52 1011.47 1011.53 1011.68 1011.86 1012.02 1012.13 1012.20 1012.23 1012.26 1012.31 1012.41 1012.56 1012.75 1012.95 1013.12 1013.25 1013.33 1013.34 1013.32 1013.30 1013.31 1013.38 1013.50 1013.68 1013.90 1014.13 1014.34 1014.53 1014.69 1014.84 1015.00 1015.20 1015.44 1015.73 1016.05
1010.12 1010.75 1011.49 1012.26 1012.97 1013.51 1013.80 1013.82 1013.58 1013.15 1012.62 1012.10 1011.70 1011.46 1011.39 1011.48 1011.66 1011.87 1012.04 1012.15 1012.19 1012.18 1012.16 1012.19 1012.30 1012.49 1012.74 1013.03 1013.30 1013.50 1013.61 1013.62 1013.56 1013.45 1013.36 1013.32 1013.36 1013.48 1013.69 1013.95 1014.22 1014.49 1014.74 1014.97 1015.18 1015.40 1015.65 1015.92 1016.21
1010.37 1011.17 1012.09 1013.01 1013.81 1014.37 1014.61 1014.50 1014.09 1013.46 1012.74 1012.07 1011.56 1011.27 1011.20 1011.32 1011.55 1011.80 1012.00 1012.10 1012.11 1012.06 1012.01 1012.02 1012.13 1012.36 1012.69 1013.07 1013.43 1013.72 1013.88 1013.90 1013.80 1013.62 1013.42 1013.27 1013.21 1013.27 1013.43 1013.69 1014.01 1014.33 1014.64 1014.93 1015.18 1015.42 1015.65 1015.90 1016.16
1010.58 1011.59 1012.70 1013.77 1014.66 1015.22 1015.38 1015.12 1014.50 1013.65 1012.72 1011.88 1011.25 1010.90 1010.83 1010.98 1011.27 1011.58 1011.82 1011.94 1011.94 1011.86 1011.78 1011.76 1011.88 1012.14 1012.54 1013.00 1013.46 1013.84 1014.07 1014.12 1014.00 1013.77 1013.49 1013.24 1013.08 1013.06 1013.17 1013.41 1013.73 1014.08 1014.42 1014.74 1015.01 1015.24 1015.46 1015.67 1015.90
1010.82 1012.04 1013.35 1014.57 1015.52 1016.06 1016.10 1015.66 1014.81 1013.70 1012.54 1011.50 1010.74 1010.32 1010.25 1010.44 1010.79 1011.17 1011.47 1011.63 1011.64 1011.56 1011.46 1011.43 1011.54 1011.83 1012.27 1012.81 1013.36 1013.82 1014.12 1014.22 1014.12 1013.87 1013.54 1013.22 1012.98 1012.88 1012.94 1013.14 1013.44 1013.78 1014.13 1014.44 1014.71 1014.92 1015.10 1015.28 1015.46
1011.09 1012.53 1014.01 1015.35 1016.34 1016.82 1016.73 1016.07 1014.97 1013.60 1012.19 1010.96 1010.06 1009.57 1009.47 1009.70 1010.12 1010.59 1010.96 1011.18 1011.23 1011.17 1011.06 1011.02 1011.13 1011.43 1011.90 1012.49 1013.10 1013.64 1014.02 1014.18 1014.12 1013.89 1013.55 1013.20 1012.91 1012.76 1012.76 1012.91 1013.17 1013.49 1013.82 1014.11 1014.34 1014.51 1014.65 1014.77 1014.91
1011.34 1012.97 1014.60 1016.02 1017.01 1017.42 1017.17 1016.30 1014.96 1013.34 1011.70 1010.28 1009.24 1008.67 1008.56 1008.82 1009.31 1009.85 1010.32 1010.62 1010.73 1010.70 1010.61 1010.57 1010.67 1010.97 1011.44 1012.06 1012.72 1013.32 1013.76 1014.00 1014.01 1013.82 1013.51 1013.16 1012.86 1012.68 1012.64 1012.75 1012.97 1013.25 1013.53 1013.78 1013.96 1014.09 1014.16 1014.23 1014.31
1011.51 1013.27 1014.99 1016.44 1017.40 1017.71 1017.32 1016.26 1014.71 1012.88 1011.06 1009.48 1008.33 1007.70 1007.57 1007.86 1008.41 1009.03 1009.59 1009.98 1010.17 1010.19 1010.13 1010.10 1010.20 1010.48 1010.94 1011.56 1012.24 1012.88 1013.38 1013.69 1013.77 1013.66 1013.40 1013.10 1012.82 1012.63 1012.57 1012.65 1012.82 1013.06 1013.30 1013.50 1013.63 1013.70 1013.72 1013.72 1013.73
1011.49 1013.31 1015.06 1016.49 1017.38 1017.59 1017.08 1015.89 1014.19 1012.24 1010.30 1008.63 1007.41 1006.74 1006.60 1006.90 1007.50 1008.19 1008.83 1009.29 1009.56 1009.65 1009.63 1009.62 1009.72 1009.98 1010.43 1011.03 1011.70 1012.36 1012.91 1013.28 1013.44 1013.40 1013.23 1012.99 1012.75 1012.59 1012.53 1012.59 1012.74 1012.93 1013.13 1013.29 1013.38 1013.40 1013.36 1013.30 1013.25
1011.21 1013.01 1014.71 1016.06 1016.87 1016.99 1016.39 1015.13 1013.39 1011.40 1009.44 1007.76 1006.54 1005.86 1005.72 1006.03 1006.65 1007.38 1008.07 1008.60 1008.93 1009.08 1009.12 1009.14 1009.25 1009.50 1009.92 1010.49 1011.15 1011.80 1012.38 1012.79 1013.02 1013.07 1012.98 1012.82 1012.65 1012.53 1012.49 1012.55 1012.69 1012.86 1013.03 1013.16 1013.23 1013.21 1013.14 1013.03 1012.93
1010.65 1012.35 1013.92 1015.15 1015.86 1015.90 1015.27 1014.03 1012.34 1010.43 1008.55 1006.94 1005.77 1005.13 1005.00 1005.31 1005.92 1006.65 1007.35 1007.91 1008.29 1008.50 1008.59 1008.65 1008.77 1009.02 1009.43 1009.97 1010.59 1011.23 1011.81 1012.26 1012.55 1012.68 1012.68 1012.60 1012.51 1012.45 1012.45 1012.53 1012.67 1012.84 1013.00 1013.12 1013.17 1013.15 1013.06 1012.94 1012.80
1009.86 1011.38 1012.77 1013.84 1014.42 1014.42 1013.81 1012.66 1011.11 1009.38 1007.68 1006.23 1005.17 1004.59 1004.48 1004.77 1005.33 1006.01 1006.68 1007.24 1007.64 1007.88 1008.02 1008.13 1008.29 1008.55 1008.94 1009.46 1010.05 1010.67 1011.24 1011.71 1012.04 1012.23 1012.32 1012.33 1012.32 1012.33 1012.39 1012.51 1012.67 1012.85 1013.02 1013.15 1013.22 1013.22 1013.14 1013.01 1012.86
1008.96 1010.26 1011.42 1012.29 1012.75 1012.70 1012.15 1011.15 1009.82 1008.33 1006.89 1005.65 1004.75 1004.25 1004.15 1004.40 1004.88 1005.48 1006.08 1006.59 1006.98 1007.24 1007.43 1007.59 1007.78 1008.07 1008.47 1008.97 1009.54 1010.13 1010.68 1011.16 1011.52 1011.78 1011.94 1012.04 1012.12 1012.20 1012.32 1012.49 1012.68 1012.89 1013.09 1013.25 1013.35 1013.38 1013.34 1013.24 1013.10
Thickness
5837 5835 5830 5817 5793 5770 5763 5772 5781 5781 5779 5784 5787 5781 5770 5762 5753 5743 5762 5770 5771 5771 5772 5773 5774 5774 5775 5776 5777 5777 5778 5779 5779 5779 5778 5778 5777 5776 5775 5773 5772 5771 5770 5769 5768 5766 5765 5764 5763
5841 5836 5825 5808 5778 5753 5759 5777 5779 5782 5786 5790 5788 5781 5772 5764 5768 5764 5766 5770 5772 5772 5773 5773 5774 5774 5775 5775 5776 5777 5778 5778 5778 5778 5778 5777 5777 5775 5774 5772 5771 5770 5769 5767 5766 5765 5763 5762 5762
5844 5839 5817 5794 5774 5761 5765 5781 5785 5790 5795 5793 5785 5782 5773 5765 5769 5768 5771 5773 5773 5773 5773 5774 5774 5774 5774 5775 5775 5776 5777 5777 5777 5777 5777 5777 5776 5775 5773 5771 5770 5769 5768 5766 5765 5764 5762 5761 5760
5843 5828 5812 5788 5775 5784 5787 5790 5794 5791 5791 5792 5786 5774 5774 5779 5777 5775 5776 5775 5773 5773 5773 5774 5774 5775 5775 5775 5775 5775 5776 5776 5776 5776 5776 5776 5775 5773 5772 5770 5769 5767 5767 5765 5764 5763 5762 5760 5759
5841 5817 5793 5779 5782 5793 5800 5802 5801 5791 5786 5785 5784 5769 5767 5779 5782 5780 5777 5776 5774 5774 5774 5775 5775 5775 5775 5775 5775 5775 5775 5775 5775 5776 5775 5775 5774 5772 5771 5769 5768 5767 5765 5764 5763 5762 5761 5760 5759
5827 5811 5782 5772 5784 5796 5802 5806 5802 5791 5785 5785 5781 5771 5766 5780 5780 5779 5779 5777 5776 5775 5775 5775 5775 5775 5775 5775 5775 5775 5775 5775 5775 5774 5774 5773 5772 5771 5770 5769 5768 5766 5765 5764 5763 5762 5761 5760 5759
5822 5803 5786 5785 5786 5790 5800 5810 5802 5792 5786 5786 5787 5771 5769 5777 5781 5782 5780 5778 5777 5776 5775 5775 5775 5775 5775 5775 5774 5774 5774 5774 5773 5773 5772 5772 5771 5770 5769 5768 5767 5766 5765 5764 5763 5762 5761 5760 5760
5837 5810 5793 5790 5789 5791 5808 5813 5809 5801 5792 5798 5795 5774 5767 5778 5785 5783 5780 5778 5777 5776 5775 5775 5775 5775 5775 5774 5774 5774 5773 5773 5772 5772 5771 5771 5770 5769 5769 5768 5767 5766 5765 5764 5763 5762 5761 5761 5760
5847 5806 5789 5795 5796 5799 5814 5810 5808 5811 5802 5799 5798 5790 5787 5790 5787 5781 5776 5774 5774 5775 5775 5776 5775 5775 5775 5775 5774 5774 5773 5772 5771 5771 5770 5769 5768 5768 5768 5767 5766 5766 5765 5764 5763 5762 5761 5761 5760
5837 5803 5806 5821 5819 5814 5816 5812 5808 5801 5793 5790 5790 5793 5795 5792 5786 5780 5776 5773 5772 5773 5775 5776 5776 5776 5776 5776 5775 5774 5773 5773 5772 5771 5770 5769 5768 5767 5767 5767 5766 5765 5765 5764 5763 5762 5762 5761 5760
5841 5824 5830 5833 5834 5829 5819 5815 5815 5800 5786 5789 5789 5790 5792 5789 5786 5782 5780 5779 5778 5778 5779 5779 5779 5778 5778 5777 5776 5775 5774 5773 5772 5771 5770 5769 5768 5768 5767 5766 5766 5765 5765 5764 5763 5762 5762 5761 5760
5843 5842 5843 5836 5838 5831 5823 5818 5810 5805 5800 5806 5804 5801 5795 5789 5786 5784 5783 5783 5783 5782 5782 5782 5782 5781 5780 5779 5778 5776 5775 5774 5773 5772 5771 5770 5769 5768 5768 5767 5767 5766 5765 5763 5762 5762 5761 5761 5760
5840 5839 5844 5844 5840 5835 5829 5819 5813 5808 5813 5813 5809 5803 5797 5792 5790 5790 5790 5788 5787 5784 5785 5785 5786 5784 5783 5781 5780 5778 5777 5776 5775 5774 5773 5772 5770 5770 5769 5768 5767 5766 5765 5763 5762 5761 5761 5760 5759
5842 5841 5840 5840 5837 5834 5824 5817 5813 5808 5816 5812 5807 5802 5800 5796 5794 5792 5791 5789 5789 5788 5788 5788 5788 5787 5785 5783 5781 5780 5778 5777 5776 5775 5774 5773 5772 5771 5770 5768 5767 5766 5765 5763 5762 5761 5760 5759 5758
5850 5833 5829 5833 5834 5830 5825 5805 5808 5815 5816 5810 5807 5805 5802 5801 5799 5796 5795 5794 5793 5792 5792 5791 5790 5788 5786 5784 5783 5781 5780 5778 5777 5776 5775 5774 5773 5772 5770 5768 5766 5766 5765 5764 5763 5761 5760 5759 5758
5837 5820 5805 5822 5832 5830 5815 5787 5809 5819 5815 5808 5808 5808 5805 5803 5803 5803 5801 5799 5798 5796 5794 5793 5793 5790 5788 5786 5784 5782 5780 5779 5777 5776 5776 5775 5774 5772 5771 5769 5767 5766 5765 5764 5762 5760 5758 5757 5755
5814 5800 5801 5815 5833 5830 5814 5796 5812 5821 5817 5809 5810 5810 5808 5805 5805 5806 5805 5804 5802 5800 5797 5795 5794 5791 5789 5787 5785 5783 5781 5779 5778 5777 5776 5775 5774 5772 5771 5769 5767 5766 5765 5764 5762 5759 5757 5754 5752
5800 5803 5805 5808 5827 5827 5813 5807 5815 5821 5819 5813 5812 5811 5809 5807 5807 5810 5809 5807 5805 5803 5800 5797 5795 5793 5791 5788 5785 5783 5781 5779 5779 5778 5777 5775 5774 5772 5770 5768 5767 5765 5764 5762 5760 5758 5756 5754 5752
5822 5813 5807 5817 5835 5826 5814 5811 5815 5820 5819 5815 5813 5813 5811 5810 5814 5814 5812 5810 5806 5803 5800 5798 5795 5793 5791 5787 5783 5780 5778 5778 5778 5777 5776 5775 5773 5771 5769 5768 5766 5765 5762 5760 5759 5757 5754 5751 5751
5824 5811 5810 5821 5835 5828 5814 5813 5820 5823 5823 5823 5819 5817 5815 5812 5812 5813 5812 5811 5807 5804 5802 5799 5797 5795 5793 5790 5787 5784 5781 5779 5778 5776 5775 5774 5772 5771 5769 5767 5765 5764 5761 5759 5758 5756 5752 5750 5750
5820 5813 5814 5814 5826 5826 5812 5800 5809 5820 5825 5825 5825 5824 5822 5818 5815 5814 5813 5811 5809 5806 5804 5803 5799 5797 5794 5792 5788 5785 5781 5778 5775 5774 5773 5773 5772 5770 5769 5768 5766 5763 5761 5758 5757 5755 5751 5747 5747
5811 5833 5830 5822 5806 5794 5802 5772 5796 5810 5813 5819 5821 5823 5823 5823 5821 5818 5815 5812 5811 5810 5809 5805 5802 5799 5796 5793 5788 5783 5778 5773 5773 5773 5772 5773 5772 5771 5769 5768 5766 5764 5761 5759 5757 5755 5753 5749 5744
5828 5843 5833 5823 5806 5792 5795 5778 5787 5806 5803 5813 5821 5825 5827 5828 5825 5822 5820 5817 5816 5814 5811 5807 5803 5799 5797 5793 5789 5784 5779 5776 5775 5774 5773 5772 5771 5771 5769 5768 5766 5764 5762 5760 5757 5755 5752 5750 5746
5845 5832 5817 5804 5790 5771 5790 5782 5782 5801 5813 5820 5825 5828 5829 5830 5828 5824 5822 5819 5816 5815 5811 5807 5802 5799 5796 5793 5789 5784 5780 5777 5774 5771 5770 5770 5769 5769 5769 5768 5766 5764 5762 5759 5757 5754 5752 5749 5747
5831 5797 5768 5762 5754 5763 5792 5788 5790 5821 5833 5834 5831 5832 5832 5831 5828 5823 5820 5817 5815 5813 5810 5807 5802 5797 5796 5792 5789 5785 5782 5779 5775 5772 5770 5768 5767 5767 5767 5767 5765 5763 5761 5759 5756 5753 5751 5748 5745
5819 5799 5766 5751 5749 5762 5787 5785 5806 5837 5842 5842 5840 5838 5834 5831 5830 5827 5824 5821 5817 5814 5811 5807 5802 5798 5795 5792 5788 5786 5783 5780 5776 5774 5772 5769 5768 5767 5767 5766 5764 5762 5760 5758 5755 5752 5749 5746 5744
5816 5801 5800 5773 5766 5759 5770 5792 5814 5834 5834 5835 5834 5833 5831 5831 5831 5829 5826 5823 5819 5816 5812 5809 5804 5799 5795 5792 5789 5785 5782 5779 5776 5774 5773 5771 5769 5768 5766 5764 5762 5760 5758 5755 5752 5749 5746 5743 5741
5829 5814 5786 5767 5748 5744 5762 5775 5786 5810 5817 5826 5828 5828 5830 5831 5831 5829 5827 5824 5821 5819 5815 5811 5805 5800 5796 5792 5789 5785 5782 5779 5777 5774 5771 5770 5769 5767 5765 5762 5760 5757 5755 5752 5749 5746 5743 5740 5738
5815 5806 5785 5765 5762 5745 5743 5765 5814 5817 5822 5823 5826 5831 5831 5830 5830 5828 5827 5825 5822 5819 5814 5809 5804 5800 5795 5792 5788 5784 5781 5778 5775 5772 5770 5769 5767 5765 5763 5760 5757 5754 5751 5749 5746 5742 5740 5736 5733
5817 5805 5786 5765 5759 5757 5751 5768 5827 5825 5828 5829 5828 5831 5832 5831 5830 5829 5827 5824 5820 5815 5812 5807 5803 5799 5796 5792 5787 5783 5780 5777 5773 5770 5768 5767 5764 5762 5760 5757 5754 5751 5748 5745 5742 5739 5736 5733 5729